Wind_Speed
124 125 125 126 127 127 128 128 128 129 129 130 130 130 130 130 130 129 129 129 128 128 127 126 126 125 125 125 125 125 125 125 126 126 127 128 129 129 130 130 131 131 131 131 131 131 131 132 132 132 132 132 131 131 131 131 130 130 129 129 129 129 129 129 129 129 129 130 129 129 129 129 129 128 128 128 128 128 128 129 129 129 128 128 128 127
123 123 124 124 124 124 124 124 124 124 124 123 123 123 123 122 122 122 121 121 120 120 119 118 118 117 117 117 117 117 117 117 117 118 119 119 120 121 122 122 123 123 123 123 123 124 124 124 125 125 125 126 126 126 126 126 126 126 126 126 126 126 126 126 127 127 127 127 128 128 128 128 128 128 128 128 128 128 128 128 128 129 129 128 128 128
120 121 120 120 119 119 119 118 117 117 116 116 115 115 114 114 114 114 113 113 112 112 111 111 110 110 110 109 109 109 109 109 109 110 110 111 112 113 113 114 115 115 115 116 116 116 116 117 117 118 118 119 119 120 120 121 121 121 121 122 122 122 123 123 123 124 124 125 125 126 126 126 126 126 126 126 127 127 127 128 128 128 128 128 128 128
117 116 115 114 113 113 112 111 110 110 109 108 107 107 107 106 106 106 106 106 105 105 104 104 104 103 103 103 103 103 103 103 103 103 104 104 105 106 106 107 107 108 108 108 108 109 109 110 110 111 111 112 113 113 114 114 115 116 116 117 117 118 118 119 119 120 121 121 122 122 123 124 124 124 125 125 125 126 126 126 127 127 128 128 128 128
111 110 109 108 107 106 106 105 104 103 102 101 101 100 100 100 100 100 100 99 99 99 98 98 98 98 98 98 98 98 98 98 98 98 98 98 99 100 100 101 101 102 102 102 102 103 103 104 104 105 106 106 107 107 108 109 109 110 110 111 112 112 113 114 115 115 116 117 118 119 119 120 121 122 122 123 123 124 124 125 125 126 127 127 127 128
106 104 103 102 101 100 100 99 98 97 97 96 95 95 94 94 94 94 94 94 94 93 93 93 93 93 93 93 93 93 93 93 93 93 93 94 94 95 95 96 96 96 97 97 97 98 98 98 99 100 100 101 101 102 103 103 104 105 105 106 107 107 108 109 109 110 111 112 113 114 115 116 117 118 119 120 120 121 122 123 123 124 125 126 126 127
100 99 98 97 96 95 94 94 93 93 92 91 90 90 90 89 89 89 89 89 89 88 88 88 88 88 89 89 89 89 88 88 89 89 89 89 90 90 90 91 91 92 92 92 93 93 93 94 94 95 96 96 97 97 98 99 99 100 100 101 102 102 103 103 104 105 106 107 108 109 110 112 113 114 115 116 117 118 119 120 121 122 123 124 125 125
95 94 94 93 92 91 90 89 89 88 87 86 86 85 85 85 85 84 84 84 84 84 84 84 84 84 84 84 84 84 84 84 84 84 85 85 85 86 86 86 87 87 88 88 88 89 89 90 90 91 91 92 93 93 94 94 95 95 96 96 97 97 98 98 99 100 101 102 103 104 105 106 108 109 110 112 113 114 116 117 118 119 121 122 123 124
91 90 89 89 88 87 86 85 84 84 83 82 81 81 81 81 81 80 80 80 80 80 80 79 80 80 80 80 80 80 80 80 80 80 81 81 81 81 82 82 83 83 83 84 84 85 85 86 86 87 87 88 88 89 90 90 91 91 92 92 93 93 94 94 95 95 96 97 98 99 100 101 103 104 106 107 109 110 112 113 115 116 118 119 120 121
87 86 85 85 84 83 82 81 81 80 79 78 78 77 77 77 77 77 76 76 76 76 76 76 76 76 76 77 77 76 76 76 76 77 77 77 77 77 78 78 79 79 80 80 80 81 81 82 82 83 83 84 84 85 86 86 87 87 88 88 89 89 90 90 91 91 92 93 93 94 95 96 98 99 101 102 104 106 107 109 110 112 114 116 117 119
84 83 82 81 80 79 79 78 78 77 76 76 75 75 74 74 74 73 73 73 73 73 73 73 73 73 73 73 73 73 73 73 73 73 73 73 74 74 75 75 75 76 76 77 77 77 78 78 78 79 79 80 81 81 82 83 83 84 84 85 85 86 86 87 87 88 88 89 89 90 91 92 93 95 96 98 99 101 102 104 106 108 110 112 113 115
81 79 78 78 77 76 76 76 75 74 74 73 73 72 72 71 71 70 70 70 70 71 70 70 70 70 70 70 70 70 70 70 70 70 70 71 71 71 71 72 72 72 73 73 74 74 74 75 75 75 76 76 77 77 78 79 79 80 81 81 82 82 83 83 84 84 85 85 86 86 87 88 89 91 92 93 95 96 98 99 101 103 105 107 109 111
78 76 75 75 74 74 74 74 73 73 72 71 71 70 69 69 68 67 67 67 68 68 68 68 68 68 68 68 68 68 67 67 67 68 68 68 68 68 68 68 69 69 70 70 70 71 71 71 71 72 72 73 73 74 75 75 76 77 77 78 78 79 79 80 81 81 81 82 83 83 84 85 86 87 88 89 91 92 93 95 96 98 100 102 105 107
76 74 73 73 72 72 72 72 71 71 70 70 69 68 67 67 66 65 65 65 65 66 66 65 65 66 66 65 65 65 65 65 65 65 66 66 66 66 65 65 66 66 67 67 68 68 68 68 68 69 69 70 70 71 72 72 73 73 74 75 75 76 76 77 77 78 79 79 80 80 81 82 83 84 85 86 87 88 89 91 92 94 96 98 100 102
74 73 72 71 71 71 70 70 69 69 68 68 67 66 65 65 64 64 63 63 63 63 63 63 63 63 64 64 63 63 63 63 63 63 63 64 64 63 63 63 63 64 64 64 65 65 65 65 66 66 67 67 68 68 69 69 70 70 71 72 72 73 74 74 75 76 76 77 77 78 78 79 80 80 81 82 84 85 86 87 88 90 91 93 95 98
73 72 71 70 70 69 69 68 67 67 66 66 65 64 64 63 63 62 62 61 61 61 61 61 61 61 62 62 61 61 60 60 60 61 61 62 62 61 60 60 61 61 62 62 62 63 63 63 63 64 64 65 65 66 66 67 67 68 68 69 70 70 71 72 73 73 74 75 75 75 76 76 77 78 79 79 80 81 82 83 85 86 88 89 91 93
71 70 70 69 68 68 67 66 65 65 64 63 63 62 62 61 61 61 60 60 59 59 59 59 59 59 60 60 60 59 58 58 58 59 59 60 60 60 59 59 59 60 60 60 60 60 61 61 61 62 63 63 63 64 64 64 65 66 66 67 68 68 69 70 70 71 72 72 72 73 73 73 74 75 76 76 77 78 79 80 81 83 84 86 87 89
69 69 68 68 67 66 66 65 64 63 62 61 61 60 60 59 59 59 58 58 57 57 57 57 57 57 58 58 58 57 56 56 56 57 57 58 58 58 58 57 58 58 59 59 59 59 59 59 60 60 61 61 61 61 62 62 63 64 64 65 66 66 67 68 68 69 69 69 69 70 70 70 71 72 73 74 75 75 76 77 78 80 81 82 84 86
67 67 66 66 65 65 64 63 62 61 60 59 59 58 58 57 57 57 57 56 56 55 55 55 55 55 56 56 56 55 55 54 54 55 56 57 57 57 56 56 56 57 57 57 57 57 57 58 58 58 59 59 59 60 60 61 61 62 63 64 64 65 65 65 66 66 66 67 67 67 67 68 69 69 70 71 72 73 74 75 76 77 78 79 81 82
65 65 64 64 63 63 62 62 61 60 58 57 57 56 56 55 55 55 54 54 54 53 53 53 53 54 54 54 54 54 53 52 53 53 54 55 56 56 55 55 55 55 56 56 56 56 56 56 57 57 57 57 57 58 59 59 60 61 61 62 63 63 63 63 64 64 64 64 64 65 65 66 66 67 68 69 70 71 72 72 73 74 75 77 78 79
63 63 62 61 61 60 60 60 59 58 57 56 55 55 54 54 53 53 53 52 52 52 51 51 52 52 52 52 52 52 51 51 51 52 53 54 54 54 54 53 54 54 55 55 55 55 55 55 55 55 55 55 56 56 57 58 59 60 60 61 61 61 62 62 62 62 62 62 62 63 63 64 64 65 66 67 68 68 69 70 71 72 73 74 75 76
61 60 60 59 58 58 58 58 57 56 55 54 54 53 52 52 52 51 51 51 50 50 50 50 50 50 51 51 51 50 50 50 50 50 51 52 53 53 53 52 52 53 53 54 54 53 53 54 54 54 54 54 54 55 56 57 57 58 59 59 59 60 60 60 60 60 60 60 60 61 61 62 63 63 64 65 66 66 67 68 69 70 71 72 73 74
58 58 58 57 56 55 55 55 55 54 54 53 52 52 51 50 50 50 49 49 49 49 48 48 48 49 49 49 49 49 49 48 48 49 50 51 51 52 51 51 51 51 52 52 52 52 52 52 52 52 52 52 53 54 55 55 56 57 57 57 58 58 58 58 58 58 59 59 59 60 60 60 61 62 62 63 64 65 66 66 67 68 69 70 71 72
56 56 55 54 54 53 53 52 52 52 52 51 51 50 50 49 49 48 48 48 47 47 47 47 47 48 47 47 47 47 47 47 47 47 48 49 50 50 50 50 50 50 51 51 51 51 51 50 50 50 50 51 51 52 53 54 55 55 56 56 56 56 56 56 57 57 57 57 58 58 59 59 60 60 61 62 63 63 64 65 65 66 67 68 69 69
54 53 53 52 52 51 51 50 50 50 50 50 49 49 48 48 47 47 47 47 46 46 46 46 46 46 46 46 46 46 46 45 45 45 46 47 48 49 49 48 48 49 50 50 50 49 49 48 48 48 48 49 50 51 52 53 53 54 54 54 54 54 54 55 55 55 55 56 56 57 57 58 58 59 59 60 61 62 63 63 64 64 65 66 67 67
52 51 51 50 50 49 49 48 48 48 48 48 48 47 47 46 46 46 46 46 45 45 45 45 45 45 45 45 45 44 44 44 44 44 45 45 46 47 47 47 47 47 48 49 49 48 47 47 46 46 46 47 48 49 50 51 52 52 52 52 52 52 52 53 53 53 54 54 55 55 56 56 57 58 58 59 60 60 61 62 62 63 64 64 65 65
50 49 49 48 48 47 47 47 47 46 47 46 46 46 46 45 45 45 45 45 44 44 44 44 44 44 44 43 43 43 43 42 42 43 43 44 45 45 45 45 45 46 47 47 47 47 46 45 45 45 45 45 46 48 48 49 50 50 50 50 50 50 50 51 51 51 52 52 53 54 54 55 56 56 57 57 58 59 60 60 61 62 62 63 63 64
48 48 47 47 46 46 45 45 45 45 45 45 45 45 44 44 44 44 44 44 44 43 43 43 43 43 43 42 42 42 41 41 41 41 42 42 43 44 44 44 44 45 45 46 46 46 45 44 44 43 43 44 45 46 47 48 48 48 48 48 48 48 49 49 49 50 50 51 51 52 53 53 54 55 55 56 57 57 58 59 60 60 61 61 62 62
47 46 46 45 45 44 44 44 44 44 44 44 44 43 43 43 43 43 43 43 43 42 42 42 42 41 41 41 41 40 40 40 40 41 41 41 42 42 42 42 43 43 44 44 45 44 44 43 42 42 42 43 43 44 45 46 46 47 47 47 47 46 47 47 47 48 49 49 50 50 51 51 52 53 54 54 55 56 57 57 58 59 59 60 60 61
46 45 44 44 44 43 43 43 43 43 43 42 42 42 42 42 41 42 42 42 42 41 41 41 41 40 40 40 40 39 39 39 39 39 40 40 41 41 41 41 41 42 42 43 43 43 42 42 41 41 41 41 42 43 43 44 44 45 45 45 44 45 45 45 46 46 47 47 48 48 49 50 50 51 52 53 53 54 55 56 56 57 58 58 59 59
45 44 43 43 43 42 42 42 42 42 42 42 41 41 41 40 40 40 40 40 40 40 40 40 40 39 39 39 39 38 38 38 38 38 39 39 39 40 40 40 40 40 41 41 41 41 41 40 40 39 39 40 40 41 42 42 43 43 43 43 43 43 43 43 44 45 45 46 46 47 47 48 49 49 50 51 52 52 53 54 55 55 56 57 57 58
44 43 43 42 42 42 41 41 41 41 41 41 41 40 40 39 39 39 39 39 39 39 39 39 39 38 38 38 37 37 37 37 37 37 38 38 38 38 39 39 39 39 39 40 40 40 40 39 38 38 38 38 39 40 40 41 41 41 41 41 41 41 41 42 42 43 43 44 44 45 45 46 47 47 48 49 50 51 51 52 53 53 54 55 55 56
44 43 42 42 41 41 41 41 41 40 40 40 40 39 39 39 39 38 38 38 38 38 38 38 38 37 37 37 36 36 35 35 36 36 36 37 37 37 38 38 38 38 38 38 38 38 38 38 37 37 37 37 38 38 39 39 39 40 40 39 39 40 40 40 41 41 42 42 43 43 43 44 45 45 46 47 48 49 50 50 51 52 52 53 54 55
43 43 42 41 41 40 40 40 40 39 39 39 39 38 38 38 38 37 37 37 37 37 37 37 37 36 36 36 35 35 34 34 35 35 35 36 36 36 37 37 37 37 37 37 37 37 37 37 37 36 36 36 36 37 38 38 38 38 38 38 38 38 38 39 39 40 40 41 41 41 42 42 43 43 44 45 46 47 48 48 49 50 51 51 52 53
43 42 42 41 40 40 40 39 39 39 38 38 38 37 37 37 37 37 36 36 36 36 36 36 35 35 35 35 34 34 34 33 34 34 34 35 35 35 36 36 36 36 36 37 37 37 36 36 36 35 35 35 35 36 36 37 37 37 37 37 37 37 37 37 38 38 39 39 39 40 40 40 41 42 42 43 44 45 46 46 47 48 49 50 50 51
42 42 41 40 40 39 39 39 38 38 38 37 37 36 36 36 36 35 35 35 35 35 35 35 34 34 34 34 33 33 33 33 33 33 33 34 34 34 35 35 35 35 35 36 36 36 36 35 35 35 34 34 34 34 35 35 36 36 35 35 35 35 36 36 36 37 37 37 38 38 39 39 39 40 40 41 42 43 43 44 45 46 47 48 49 49
42 41 41 40 39 39 38 38 38 37 37 36 36 35 35 35 34 34 34 34 34 34 34 34 34 33 33 33 32 32 32 32 32 32 32 33 33 33 33 34 34 34 34 35 35 35 35 34 34 34 33 33 33 33 34 34 34 34 34 34 34 34 34 34 35 35 35 36 36 37 37 37 38 38 39 39 40 41 41 42 43 44 45 46 47 48
41 41 40 39 38 38 38 37 37 36 36 35 35 34 34 34 33 33 33 33 33 33 33 33 33 32 32 32 31 31 31 31 31 31 31 32 32 32 33 33 33 33 33 33 34 34 34 33 33 33 32 32 32 32 33 33 33 33 33 33 33 33 33 33 33 34 34 34 35 35 36 36 36 37 37 38 38 39 40 40 41 42 43 44 45 46
41 40 39 39 38 37 37 36 36 35 35 34 34 33 33 33 32 32 32 32 32 32 32 32 31 31 31 31 30 30 30 30 30 30 30 31 31 31 31 32 32 32 32 32 32 32 32 32 32 32 31 31 31 31 31 31 32 32 32 32 32 32 32 32 32 32 33 33 33 34 34 35 35 36 36 36 37 37 38 39 39 40 41 42 43 44
40 39 39 38 37 36 36 35 35 34 34 33 33 32 32 31 31 31 31 31 31 31 31 31 30 30 30 29 29 29 28 28 29 29 29 30 30 30 30 30 30 31 31 31 31 31 31 31 31 31 30 30 30 29 29 30 30 31 31 31 31 31 31 31 31 31 32 32 32 33 33 33 34 34 35 35 36 36 37 37 38 38 39 40 41 42
39 39 38 37 36 35 35 34 34 33 32 32 31 31 31 30 30 30 30 30 30 30 30 29 29 29 29 28 28 27 27 27 28 28 28 29 29 29 29 29 29 29 29 30 30 30 30 30 30 30 29 29 28 28 28 28 29 29 29 30 30 30 30 30 30 30 31 31 31 32 32 32 33 33 34 34 35 35 36 36 37 37 38 39 40 40
38 37 37 36 35 34 33 33 32 32 31 31 30 30 30 30 29 29 29 29 29 29 29 28 28 28 28 27 27 26 26 26 27 27 27 28 28 28 28 28 28 28 28 29 29 29 29 29 29 29 28 28 28 27 27 27 27 28 28 28 29 29 29 29 29 29 30 30 30 31 31 32 32 33 33 33 34 35 35 36 36 37 37 38 39 39
37 36 35 34 34 33 32 32 31 31 30 30 29 29 29 29 29 29 28 28 28 28 28 28 28 27 27 26 26 25 25 25 26 26 26 27 27 27 27 27 27 27 28 28 28 28 28 28 28 28 28 27 27 26 26 26 26 26 27 27 27 27 28 28 28 28 29 29 29 30 30 31 31 32 32 33 33 34 34 35 35 36 37 37 38 39
36 35 34 33 32 32 31 31 30 29 29 29 28 28 28 28 28 28 28 28 27 27 27 27 27 27 26 26 25 24 24 24 25 25 25 26 26 26 27 27 27 27 27 27 27 27 27 27 27 27 27 27 26 26 25 25 25 25 26 26 26 26 27 27 27 27 28 28 29 29 30 30 31 31 32 32 33 33 34 34 35 35 36 37 38 38
34 33 33 32 31 31 30 30 29 29 28 28 28 27 27 27 27 27 27 27 27 27 27 27 27 26 26 25 24 24 23 23 23 24 24 25 25 26 26 26 26 26 26 26 26 26 26 26 26 26 26 26 25 25 25 24 24 25 25 25 25 25 26 26 26 26 27 27 28 28 29 30 30 31 31 32 32 33 33 34 34 35 36 36 37 38
33 32 31 31 30 30 29 29 28 28 28 27 27 27 26 26 26 26 26 26 26 26 26 27 27 26 26 25 24 23 22 22 22 22 22 23 24 25 26 26 26 26 26 26 26 26 25 25 25 25 25 25 24 24 24 24 24 24 24 24 24 24 25 25 25 26 26 27 27 28 28 29 29 30 30 31 32 32 33 33 34 34 35 36 36 37
31 31 30 30 29 29 29 28 28 28 27 27 26 26 25 25 25 25 25 25 25 26 26 26 26 26 25 25 24 23 22 21 21 21 21 22 23 24 25 26 26 27 26 26 26 25 25 24 24 24 23 23 23 23 24 24 24 24 24 24 24 24 24 24 25 25 26 26 27 27 27 28 28 29 30 30 31 31 32 32 33 34 34 35 36 36
30 30 29 29 28 28 28 28 27 27 27 26 26 25 24 24 24 24 24 24 24 25 25 26 26 26 25 25 24 23 23 22 21 20 20 21 22 23 24 25 26 26 26 26 26 25 25 24 23 23 23 23 23 23 23 24 24 24 23 23 23 23 23 23 24 24 25 26 26 26 27 27 28 28 29 29 30 30 31 31 32 33 33 34 35 35
29 29 28 28 28 27 27 27 27 26 26 26 25 25 24 23 23 23 23 23 24 24 25 25 26 26 25 25 25 24 24 23 22 21 20 20 21 22 23 24 25 26 26 26 26 25 25 24 23 23 22 22 23 23 23 24 24 24 23 23 22 22 22 22 23 23 24 25 25 26 26 26 27 27 28 28 29 30 30 31 31 32 32 33 33 34
28 27 27 27 27 26 26 26 26 26 25 25 24 24 23 23 23 23 22 23 23 23 24 25 25 25 25 25 25 25 24 24 23 22 21 21 21 21 22 23 24 25 25 26 26 26 25 25 24 23 23 23 23 23 24 24 24 24 23 22 22 22 21 22 22 22 23 24 24 25 25 26 26 27 27 28 28 29 29 30 30 31 31 32 32 33
27 26 26 26 26 25 25 25 25 25 25 24 24 24 23 23 22 22 22 22 22 23 23 24 24 24 24 25 25 25 24 24 23 23 22 21 21 21 21 22 23 24 24 25 26 26 26 25 24 23 23 23 23 24 24 24 24 23 23 22 22 21 21 21 21 22 22 23 24 24 25 25 26 26 27 28 28 29 29 29 30 30 31 32 32 33
Wind_Direction
285 284 283 282 281 281 280 279 279 278 278 278 277 277 277 276 276 276 276 275 275 275 274 274 274 273 273 272 272 271 270 270 270 269 269 269 268 268 268 268 268 267 267 267 267 267 266 266 266 266 266 265 265 265 264 264 264 263 263 262 262 261 261 260 260 260 259 259 259 258 258 257 257 257 257 256 256 256 256 256 256 257 257 257 257 257
286 285 284 283 282 282 281 280 280 279 279 278 278 277 277 277 276 276 276 275 275 275 274 274 274 273 273 272 272 271 270 270 269 269 269 268 268 268 268 267 267 267 267 266 266 266 266 266 265 265 265 265 264 264 264 263 263 262 262 261 261 260 260 259 259 259 258 258 258 257 257 256 256 256 255 255 255 255 255 255 255 255 255 255 255 255
287 286 285 284 283 283 282 281 280 280 279 279 278 278 277 277 277 276 276 276 275 275 274 274 274 273 273 272 272 271 270 270 269 269 268 268 268 268 267 267 267 266 266 266 266 266 265 265 265 265 264 264 264 264 263 263 262 262 261 261 260 260 259 259 258 258 257 257 257 256 256 255 255 255 254 254 254 254 253 253 253 254 254 254 254 254
288 287 286 285 284 283 282 282 281 280 280 279 279 278 277 277 277 276 276 275 275 275 274 274 273 273 272 272 271 271 270 270 269 269 268 268 268 267 267 267 267 266 266 266 266 265 265 265 264 264 264 264 263 263 263 262 262 261 261 260 260 259 259 258 257 257 256 256 256 255 255 254 254 254 253 253 252 252 252 252 252 252 252 252 253 253
288 287 286 285 284 284 283 282 281 281 280 280 279 278 278 277 277 276 276 275 275 275 274 274 273 273 272 272 271 271 270 270 269 269 268 268 267 267 267 267 266 266 266 266 265 265 265 264 264 264 263 263 263 262 262 262 261 261 260 260 259 259 258 258 257 257 256 255 255 254 254 254 253 253 252 252 251 251 251 251 251 251 251 251 251 251
289 288 287 286 285 284 283 283 282 281 280 280 279 278 278 277 277 276 276 275 275 274 274 274 273 273 272 272 271 271 270 270 269 269 268 268 267 267 267 266 266 266 266 265 265 265 264 264 264 263 263 263 262 262 262 261 261 261 260 260 259 259 258 258 257 257 256 255 255 254 254 253 253 252 252 251 251 250 250 250 249 249 249 249 250 250
289 288 287 286 285 284 284 283 282 281 281 280 279 279 278 277 277 276 276 275 275 274 274 273 273 273 272 272 271 271 270 270 269 269 268 268 267 267 267 266 266 266 265 265 265 264 264 264 263 263 263 262 262 262 262 261 261 261 260 260 259 259 259 258 258 257 256 256 255 255 254 254 253 252 252 251 251 250 250 249 249 248 248 248 248 248
290 289 288 287 286 285 284 283 283 282 281 280 280 279 278 278 277 277 276 276 275 275 274 274 273 273 272 272 271 271 270 270 269 269 268 268 267 267 267 266 266 266 265 265 265 264 264 263 263 263 262 262 262 262 261 261 261 261 260 260 260 259 259 258 258 257 257 256 256 255 254 254 253 253 252 251 251 250 249 249 248 248 248 247 247 247
290 289 288 287 286 286 285 284 283 282 282 281 280 279 279 278 278 277 276 276 275 275 274 274 273 273 273 272 272 271 271 270 270 269 269 268 268 267 267 266 266 266 265 265 264 264 264 263 263 263 262 262 262 262 262 261 261 261 261 260 260 259 259 259 258 257 257 256 256 255 255 254 253 253 252 252 251 250 249 249 248 248 247 247 247 247
290 289 289 288 287 286 285 285 284 283 282 281 281 280 279 279 278 278 277 277 276 276 275 274 274 274 273 273 272 271 271 270 270 270 269 269 268 268 267 267 266 266 265 265 264 264 264 263 263 262 262 262 262 262 261 261 261 261 260 260 260 259 259 258 258 257 257 256 256 255 254 254 253 253 252 252 251 250 250 249 248 248 247 247 246 246
291 290 289 288 288 287 286 285 284 283 283 282 281 280 280 279 279 278 278 278 277 276 276 275 274 274 273 273 272 272 271 271 270 270 269 269 268 268 267 267 266 266 266 265 265 264 264 263 263 263 262 262 262 262 261 261 261 260 260 260 260 259 259 258 258 257 257 256 256 255 254 254 253 253 252 251 251 250 250 249 248 248 247 247 246 246
291 291 290 289 288 288 287 286 285 284 283 282 282 281 280 280 280 279 279 278 278 277 276 276 275 274 274 273 273 272 272 271 271 270 270 269 268 268 267 267 267 266 266 266 265 265 264 264 263 263 263 262 262 262 261 261 261 260 260 260 260 259 259 258 258 257 257 256 256 255 254 254 253 253 252 251 251 250 250 249 248 248 247 246 246 246
292 291 291 290 289 288 287 286 285 285 284 283 283 282 282 281 280 280 279 278 278 277 277 276 276 275 274 274 273 273 272 272 271 270 270 269 268 268 268 267 267 267 266 266 265 265 265 264 264 263 263 262 262 262 261 261 260 260 260 260 259 259 259 258 258 257 257 256 255 255 254 254 253 252 252 251 251 250 250 249 248 248 247 246 246 245
293 292 291 290 289 288 287 287 286 285 285 284 284 283 282 282 281 280 279 278 278 277 277 277 276 275 275 274 273 273 273 272 272 271 270 270 269 269 268 268 267 267 267 266 266 265 265 264 264 263 263 262 262 261 261 261 260 260 260 259 259 259 258 258 257 257 256 256 255 255 254 253 253 252 252 251 251 250 250 249 248 248 247 246 246 245
294 293 292 291 290 288 288 287 286 286 285 285 284 284 283 282 281 280 279 278 278 277 277 277 276 276 275 274 274 273 273 273 272 272 271 271 270 269 269 268 267 267 266 266 266 265 265 264 264 263 263 262 261 261 261 260 260 260 259 259 258 258 258 257 257 256 256 255 255 254 254 253 253 252 251 251 250 250 249 249 248 247 247 246 246 245
295 294 292 291 290 289 288 287 287 286 286 285 285 284 283 282 281 280 279 279 278 278 277 277 276 276 276 275 274 274 273 273 273 272 272 271 271 270 269 268 267 267 266 266 265 265 264 264 264 263 263 262 262 261 261 260 260 259 259 259 258 258 257 257 256 256 255 255 255 254 254 253 253 252 252 251 251 250 249 249 248 247 247 246 246 245
295 294 293 291 290 289 289 288 287 286 286 285 285 284 283 282 282 281 280 279 279 278 278 277 277 276 276 275 275 274 274 273 273 272 272 271 271 270 269 268 268 267 266 265 265 265 264 264 264 263 263 262 262 261 261 260 260 260 259 259 258 257 257 257 256 256 255 255 255 254 254 253 253 252 252 251 251 250 249 249 248 247 247 246 246 245
294 293 292 291 291 290 289 288 287 286 286 285 284 284 283 282 282 281 280 280 279 278 278 277 277 276 276 276 275 274 274 273 273 272 272 271 271 270 269 269 268 267 267 266 265 265 264 264 263 263 263 262 262 262 261 261 260 260 259 259 258 257 257 257 256 256 256 255 255 255 254 254 253 253 252 251 251 250 250 249 248 248 247 246 246 245
294 293 292 291 291 290 289 288 287 287 286 285 284 283 283 282 281 281 280 280 279 279 278 277 277 276 276 275 275 275 274 273 273 272 272 271 271 270 270 269 268 268 267 267 266 265 265 264 263 263 263 262 262 262 262 261 261 260 259 259 258 258 257 257 257 256 256 256 255 255 254 254 253 253 252 252 251 250 250 249 248 248 247 246 246 245
294 293 292 292 291 290 289 289 288 287 286 285 284 284 283 282 281 281 280 280 279 279 278 277 277 276 275 275 275 274 274 273 273 272 271 271 270 270 270 269 269 268 268 267 267 266 265 264 264 263 263 263 262 262 261 261 260 260 260 259 259 258 258 258 257 257 256 256 255 255 254 254 253 252 252 251 251 250 250 249 248 248 247 246 246 245
294 293 292 291 291 290 289 289 288 287 287 286 285 284 283 282 282 281 280 280 279 278 278 277 276 276 275 275 274 274 274 273 272 272 271 271 270 270 270 269 269 268 268 267 267 266 266 265 264 264 263 263 262 262 261 261 260 260 260 259 259 259 259 258 258 257 257 256 256 255 254 254 253 252 252 251 251 250 249 249 248 248 247 246 246 245
294 293 292 291 291 290 289 289 288 287 287 286 285 284 283 283 282 281 280 280 279 278 278 277 276 276 275 274 274 274 274 273 272 272 271 271 271 270 270 269 269 268 268 267 267 266 266 265 265 264 264 263 263 262 262 261 261 260 260 260 259 259 259 258 258 258 257 256 256 255 254 253 253 252 251 251 250 250 249 249 248 247 247 246 246 245
294 293 292 291 290 290 289 288 288 287 287 286 285 284 284 283 282 281 281 280 279 278 278 277 276 275 275 275 274 274 273 273 272 272 271 271 271 271 270 270 269 268 268 267 267 266 266 265 265 265 264 264 263 263 262 261 261 260 260 260 259 259 259 259 258 258 257 257 256 255 254 253 253 252 251 251 250 250 249 248 248 247 247 246 246 245
294 293 291 291 290 289 288 288 287 287 286 286 285 284 284 283 282 282 281 280 279 278 278 277 276 275 275 275 274 274 273 273 272 272 272 271 271 271 271 270 270 269 268 268 267 267 266 266 265 265 264 264 263 263 262 262 261 261 260 260 259 259 259 258 258 258 257 257 256 255 254 254 253 252 251 251 250 250 249 248 248 247 247 246 246 245
293 292 291 290 290 289 288 287 287 286 286 285 285 284 284 283 283 282 281 280 279 279 278 277 277 276 275 275 274 274 273 273 272 272 272 271 271 271 271 270 270 270 269 269 268 267 267 266 265 265 264 264 263 263 262 262 261 261 260 260 260 259 259 258 258 257 257 256 256 255 254 254 253 252 251 251 250 249 249 248 248 247 247 246 246 245
293 292 291 290 289 289 288 287 287 286 285 285 285 284 284 283 283 282 281 281 280 279 279 278 277 277 276 275 275 274 274 273 273 272 272 271 271 271 271 271 270 270 270 269 269 268 267 266 266 265 264 264 263 262 262 262 261 261 261 260 260 259 259 258 258 257 257 256 256 255 254 253 253 252 251 250 250 249 249 248 248 247 247 246 246 245
293 292 291 290 289 289 288 287 286 286 285 285 284 284 284 283 283 282 282 281 281 280 279 279 278 277 277 276 276 275 275 274 273 273 272 272 271 271 271 271 271 270 270 270 269 269 268 267 266 265 264 264 263 262 262 262 261 261 261 260 260 259 259 258 258 257 256 256 255 255 254 253 252 252 251 250 250 249 249 248 248 247 247 246 245 245
293 292 291 290 289 289 288 287 286 286 285 285 284 284 284 283 283 283 282 282 281 281 280 279 279 278 278 277 276 276 275 275 274 273 273 272 272 272 272 271 271 270 270 270 270 270 269 268 267 266 265 264 263 263 262 262 262 261 261 260 260 259 259 258 258 257 256 255 255 254 253 253 252 251 251 250 250 249 248 248 248 247 247 246 245 245
293 292 291 291 290 289 288 288 287 286 285 285 285 284 284 284 283 283 283 282 282 281 281 280 279 279 278 278 277 277 276 276 275 274 273 273 272 272 272 271 271 270 270 270 270 270 269 269 268 267 266 265 264 263 263 262 262 261 261 260 260 259 259 258 257 257 256 255 255 254 253 253 252 251 251 250 249 249 248 248 247 247 246 246 245 245
293 292 291 291 290 289 289 288 287 286 286 285 285 284 284 284 283 283 282 282 282 282 281 281 280 279 279 279 278 278 277 276 276 275 274 273 273 272 272 271 271 270 270 270 270 270 270 269 268 267 266 265 265 264 263 263 262 262 261 261 260 259 259 258 257 256 256 255 254 254 253 252 252 251 251 250 249 249 248 248 247 247 246 246 245 245
293 293 292 291 290 290 289 288 288 287 286 286 285 284 284 284 283 283 282 282 282 282 281 281 280 280 279 279 278 278 277 277 276 275 274 274 273 273 272 272 271 271 271 270 270 270 270 269 268 267 266 266 265 264 264 263 263 262 261 261 260 259 258 258 257 256 255 255 254 254 253 252 252 251 250 250 249 249 248 248 247 247 246 246 245 245
294 293 292 292 291 290 289 289 288 287 287 286 286 285 285 284 283 283 282 282 282 281 281 281 280 280 279 279 279 278 277 277 276 275 275 274 274 274 273 272 272 271 271 271 270 270 270 269 268 267 266 266 265 265 264 263 263 262 262 261 260 259 258 258 257 256 255 255 254 253 253 252 251 251 250 250 249 249 248 248 247 247 246 246 245 245
295 294 293 293 292 291 290 289 289 288 287 287 286 286 285 284 284 283 283 282 281 281 281 281 280 280 279 279 278 278 277 277 276 276 275 275 274 274 273 273 272 272 272 271 271 270 270 269 268 267 266 266 265 265 264 264 263 263 262 261 260 259 259 258 257 256 256 255 254 253 253 252 251 251 250 250 249 249 248 248 247 247 246 246 245 245
295 294 294 293 292 291 290 290 289 288 288 287 286 286 285 285 284 284 283 282 282 282 281 281 280 280 280 279 279 278 277 277 276 276 275 275 274 274 274 273 273 272 272 272 271 271 270 269 269 268 267 266 265 265 264 264 263 263 262 261 260 259 259 258 257 256 256 255 254 253 253 252 251 251 250 250 249 249 248 247 247 247 246 246 245 245
295 294 294 293 292 291 290 290 289 288 288 287 286 286 285 285 284 284 283 283 283 282 281 281 281 280 280 280 279 279 278 277 277 276 276 275 274 274 274 273 273 273 273 272 272 272 271 270 269 268 267 266 265 265 265 264 264 263 262 261 261 260 259 258 257 257 256 255 254 253 253 252 251 251 250 250 249 249 248 247 247 247 246 246 245 245
294 294 293 293 292 291 290 289 289 288 287 287 286 286 285 285 284 284 284 283 283 282 282 282 281 281 280 280 280 279 278 278 277 276 276 275 274 274 274 274 273 273 273 273 273 272 272 271 270 269 268 267 266 265 265 265 264 264 263 262 261 260 259 258 257 257 256 255 254 253 253 252 251 250 250 249 249 248 248 248 247 247 246 246 245 245
294 294 293 292 291 291 290 289 288 288 287 286 286 286 285 285 284 284 284 283 283 282 282 282 281 281 281 280 280 279 279 278 278 277 276 275 275 274 274 274 273 273 273 273 273 273 272 271 271 270 269 267 266 266 265 265 265 264 263 262 261 260 259 258 257 256 256 255 254 254 253 252 251 250 249 249 248 248 247 247 247 246 246 246 245 245
294 293 292 292 291 290 289 289 288 288 287 287 286 286 285 285 284 284 284 283 282 282 282 282 281 281 280 280 280 280 279 278 278 277 276 276 275 275 274 274 274 274 273 273 273 273 273 272 271 271 270 268 267 266 266 265 265 264 264 263 262 260 259 258 257 257 256 255 254 253 253 252 251 250 249 248 248 247 247 246 246 246 246 245 245 244
293 293 292 291 291 290 289 288 288 287 287 287 286 286 285 285 284 284 283 283 282 282 282 281 281 280 280 280 280 280 279 279 278 277 277 276 275 275 275 274 274 274 274 273 273 273 273 272 272 271 270 269 268 267 266 266 265 265 264 263 262 261 260 259 258 257 255 255 254 253 252 251 250 250 249 248 247 246 245 245 245 245 245 244 244 244
293 292 292 291 290 290 289 288 288 288 287 287 286 286 285 285 284 284 283 282 282 282 281 281 281 281 280 280 280 280 280 279 279 278 277 277 276 276 275 275 274 274 274 273 273 273 273 272 272 271 270 270 269 268 267 266 266 265 265 264 263 262 260 259 258 257 255 254 254 253 252 251 250 249 248 247 246 245 245 244 243 243 243 243 243 243
292 292 291 291 290 290 289 289 288 288 287 287 287 286 286 285 284 284 283 282 282 282 282 282 281 281 281 281 281 281 280 279 279 278 277 277 277 276 275 275 274 274 273 273 273 272 272 272 271 271 271 270 269 268 267 266 266 265 265 264 263 262 261 260 258 257 256 255 254 252 252 251 250 249 248 247 246 245 244 243 242 242 241 241 241 241
292 292 291 291 290 290 290 289 289 288 287 287 287 286 285 285 284 284 283 283 283 282 282 282 282 282 282 282 282 282 281 280 279 278 278 277 277 276 275 275 274 273 273 273 272 272 272 271 271 271 271 270 269 268 267 266 265 265 264 264 263 262 261 260 259 257 256 255 254 253 251 250 249 248 247 246 245 244 243 242 242 241 240 240 239 239
292 292 291 291 291 290 290 289 289 288 288 287 287 286 285 285 284 284 284 283 283 283 283 283 283 283 283 283 283 282 282 281 280 279 279 278 277 276 275 275 274 273 273 272 272 272 272 272 272 271 271 270 269 268 267 266 265 264 264 263 262 262 261 260 259 258 256 255 254 253 252 250 249 248 247 246 245 244 243 242 241 240 240 239 238 238
292 292 291 291 291 290 290 289 289 288 287 287 286 286 285 285 285 284 284 284 284 284 284 283 283 283 283 283 283 282 281 281 280 280 279 279 278 277 276 275 274 274 273 272 272 272 272 272 272 272 272 271 270 269 268 266 265 264 263 262 262 261 260 260 259 257 257 255 254 253 252 251 249 248 247 246 245 244 243 242 241 240 239 239 238 238
292 292 291 291 290 290 290 289 289 288 287 287 286 286 285 285 285 285 285 285 285 285 284 284 284 284 284 283 282 282 281 280 279 279 279 279 279 278 277 276 275 274 274 273 273 273 273 273 273 273 273 273 272 270 269 267 265 263 262 261 261 260 259 259 258 257 256 255 254 253 252 251 250 249 248 247 246 244 243 242 241 240 239 239 238 238
291 291 291 290 290 290 289 289 288 288 287 287 286 286 286 286 285 285 285 285 285 285 285 284 284 284 284 283 282 281 280 278 277 277 277 277 277 277 277 277 276 276 275 275 274 274 274 274 274 274 274 274 273 272 270 268 266 264 262 261 260 259 258 258 257 256 256 255 254 253 252 251 250 249 249 248 246 245 244 243 242 241 240 239 239 238
291 290 290 290 290 289 289 289 288 288 288 287 287 287 286 286 285 285 285 284 284 284 284 284 284 283 283 282 282 280 278 277 275 273 273 273 274 275 276 276 276 276 276 276 276 275 275 275 275 275 274 274 274 273 271 269 267 265 263 261 260 259 258 257 257 256 255 254 254 252 252 251 250 249 249 248 247 247 245 244 243 242 241 240 239 239
290 290 290 290 290 289 289 288 288 288 288 288 287 287 286 286 285 284 284 283 282 282 282 282 282 282 282 282 281 280 278 275 273 272 270 270 271 272 273 274 275 276 276 276 276 276 276 275 275 274 274 274 273 272 271 269 268 266 264 263 261 259 258 257 256 256 255 254 254 253 252 251 250 249 248 248 247 246 246 245 244 243 242 241 241 240
290 290 290 289 289 289 288 288 288 288 288 288 287 286 286 285 284 283 282 281 281 280 280 281 281 281 281 281 281 280 278 276 274 272 270 269 269 269 270 272 274 275 276 276 276 276 275 275 274 274 273 273 272 271 270 269 268 267 265 264 263 261 259 258 257 256 255 255 254 253 252 251 250 249 248 247 246 246 246 245 244 244 243 242 242 241
290 290 289 289 289 288 288 288 287 287 287 286 286 286 285 284 283 282 281 280 280 279 279 279 280 280 281 281 281 280 279 278 277 275 272 271 269 269 269 270 271 273 274 275 275 275 275 275 274 273 273 272 271 270 269 268 268 267 266 265 264 262 261 259 257 256 256 255 254 253 252 251 250 249 248 247 246 245 244 244 243 243 242 242 241 241
290 289 289 288 288 287 287 286 286 286 285 285 285 285 284 283 283 282 281 280 279 279 279 279 279 280 280 280 280 280 280 280 279 278 275 273 272 270 269 269 270 271 272 273 274 274 274 274 273 273 272 271 270 269 268 268 267 267 266 266 265 263 262 260 258 257 256 255 254 253 252 251 250 249 248 247 246 244 243 243 242 241 241 241 240 240
Height
10314 10308 10302 10299 10294 10290 10285 10280 10276 10272 10269 10265 10261 10258 10255 10252 10249 10246 10244 10242 10241 10240 10239 10238 10237 10237 10236 10235 10235 10234 10234 10233 10232 10231 10230 10229 10227 10227 10226 10226 10226 10227 10228 10229 10229 10230 10231 10232 10233 10234 10236 10237 10239 10242 10244 10247 10249 10252 10255 10257 10260 10262 10265 10267 10270 10272 10275 10278 10280 10284 10287 10291 10295 10299 10302 10305 10308 10310 10314 10315 10318 10320 10322 10325 10327 10330
10295 10290 10285 10281 10277 10273 10269 10264 10260 10257 10254 10250 10247 10244 10242 10239 10235 10233 10230 10229 10227 10226 10225 10224 10224 10223 10222 10221 10220 10220 10219 10219 10219 10218 10217 10216 10215 10214 10214 10213 10214 10214 10215 10215 10217 10217 10219 10219 10220 10222 10223 10224 10225 10227 10229 10232 10234 10237 10239 10242 10245 10247 10250 10252 10255 10257 10260 10263 10265 10269 10272 10275 10279 10283 10287 10290 10294 10297 10300 10303 10305 10307 10310 10312 10315 10318
10278 10273 10268 10264 10260 10257 10252 10247 10244 10242 10239 10236 10234 10231 10229 10225 10223 10220 10218 10216 10214 10213 10212 10212 10210 10210 10209 10208 10207 10207 10206 10206 10205 10205 10205 10204 10203 10202 10202 10201 10201 10202 10202 10204 10205 10205 10207 10207 10209 10209 10210 10211 10212 10214 10216 10218 10220 10222 10225 10227 10230 10232 10235 10237 10240 10243 10245 10248 10251 10254 10257 10260 10264 10267 10272 10275 10279 10283 10286 10289 10292 10295 10297 10300 10302 10305
10262 10257 10252 10248 10244 10241 10237 10233 10230 10227 10225 10223 10220 10219 10216 10214 10211 10209 10206 10204 10203 10202 10200 10200 10199 10198 10197 10196 10195 10194 10194 10194 10194 10194 10194 10193 10192 10191 10190 10190 10190 10190 10192 10192 10194 10195 10195 10196 10197 10197 10199 10199 10200 10202 10203 10205 10207 10209 10211 10213 10215 10218 10220 10223 10225 10229 10231 10234 10237 10239 10242 10245 10249 10252 10257 10260 10264 10269 10272 10275 10279 10282 10284 10287 10290 10294
10247 10242 10237 10234 10230 10227 10223 10220 10217 10215 10212 10210 10209 10207 10204 10202 10200 10198 10195 10194 10192 10191 10190 10189 10188 10187 10186 10185 10184 10184 10183 10183 10184 10184 10183 10182 10182 10181 10180 10180 10180 10180 10181 10182 10183 10184 10185 10185 10186 10187 10187 10188 10189 10190 10191 10192 10194 10195 10198 10200 10202 10204 10207 10209 10212 10215 10217 10220 10223 10226 10229 10232 10235 10239 10242 10246 10250 10254 10258 10262 10265 10269 10272 10275 10278 10281
10233 10228 10224 10220 10217 10214 10210 10208 10205 10202 10200 10199 10197 10195 10194 10191 10189 10187 10185 10184 10182 10181 10180 10179 10178 10177 10175 10174 10174 10173 10173 10173 10174 10173 10173 10172 10172 10171 10170 10170 10171 10171 10172 10172 10173 10174 10175 10175 10176 10177 10177 10177 10178 10179 10180 10181 10182 10184 10186 10188 10190 10192 10194 10197 10199 10202 10205 10207 10210 10213 10216 10219 10222 10225 10229 10232 10237 10240 10244 10248 10252 10255 10259 10262 10265 10269
10220 10215 10212 10208 10205 10202 10200 10197 10194 10191 10190 10189 10187 10185 10183 10181 10179 10177 10175 10174 10173 10172 10170 10169 10168 10167 10165 10165 10164 10164 10164 10164 10164 10164 10163 10162 10162 10162 10162 10162 10162 10162 10163 10163 10164 10164 10165 10165 10166 10167 10167 10167 10168 10169 10170 10171 10172 10174 10175 10177 10179 10181 10184 10186 10189 10191 10194 10196 10199 10202 10204 10207 10210 10213 10217 10220 10224 10227 10231 10235 10239 10242 10245 10249 10253 10257
10207 10204 10200 10197 10194 10191 10189 10186 10184 10181 10179 10179 10177 10175 10173 10171 10169 10168 10167 10165 10164 10163 10162 10160 10159 10158 10157 10156 10155 10155 10155 10155 10154 10154 10154 10154 10154 10153 10153 10153 10153 10154 10154 10154 10155 10155 10156 10157 10157 10157 10158 10159 10159 10160 10161 10162 10163 10164 10166 10167 10169 10172 10174 10176 10178 10180 10183 10185 10188 10190 10193 10195 10199 10202 10205 10207 10211 10215 10219 10222 10226 10229 10233 10237 10240 10245
10197 10193 10189 10186 10184 10181 10179 10176 10174 10172 10170 10169 10168 10166 10164 10162 10160 10159 10158 10157 10155 10154 10153 10152 10150 10149 10148 10147 10147 10147 10147 10146 10145 10145 10145 10145 10145 10145 10145 10145 10145 10145 10145 10145 10146 10147 10147 10148 10148 10149 10149 10150 10150 10152 10152 10154 10154 10155 10157 10159 10160 10162 10164 10166 10168 10170 10172 10175 10177 10180 10182 10185 10187 10190 10193 10195 10199 10203 10207 10210 10214 10217 10221 10225 10229 10232
10187 10183 10179 10176 10174 10171 10169 10166 10164 10162 10160 10160 10159 10157 10155 10153 10152 10150 10150 10148 10147 10145 10145 10144 10143 10142 10140 10139 10139 10139 10139 10138 10138 10137 10137 10137 10137 10137 10137 10137 10137 10137 10137 10137 10138 10139 10139 10139 10140 10140 10141 10142 10143 10144 10144 10145 10146 10147 10149 10150 10151 10152 10154 10156 10158 10160 10162 10164 10167 10169 10172 10174 10176 10179 10181 10184 10187 10191 10194 10198 10202 10205 10209 10213 10217 10220
10177 10174 10170 10167 10165 10162 10159 10157 10155 10153 10152 10150 10149 10148 10147 10145 10144 10144 10142 10140 10139 10137 10136 10136 10135 10134 10132 10131 10130 10130 10130 10130 10130 10130 10130 10129 10129 10129 10129 10129 10129 10129 10129 10130 10130 10130 10131 10132 10132 10133 10134 10135 10135 10136 10137 10137 10138 10139 10140 10141 10142 10144 10145 10147 10149 10151 10153 10155 10157 10159 10162 10164 10166 10169 10171 10174 10176 10179 10183 10187 10190 10194 10198 10201 10205 10209
10167 10164 10162 10159 10156 10153 10150 10148 10146 10145 10143 10142 10140 10139 10139 10138 10137 10137 10135 10133 10131 10129 10129 10128 10127 10127 10125 10124 10123 10123 10123 10123 10123 10122 10122 10122 10122 10122 10122 10122 10122 10122 10122 10122 10122 10123 10124 10124 10125 10126 10127 10127 10128 10129 10129 10130 10130 10131 10132 10133 10134 10135 10137 10139 10140 10142 10144 10146 10148 10150 10152 10154 10157 10159 10161 10163 10165 10169 10172 10175 10179 10183 10187 10190 10194 10198
10158 10156 10154 10151 10148 10145 10142 10140 10138 10136 10135 10134 10133 10132 10131 10130 10130 10129 10129 10126 10124 10122 10121 10120 10120 10119 10118 10117 10116 10116 10116 10116 10115 10115 10115 10114 10114 10115 10115 10115 10115 10115 10115 10115 10115 10115 10116 10117 10118 10119 10120 10120 10120 10121 10122 10122 10123 10124 10125 10125 10127 10128 10129 10130 10132 10134 10135 10137 10139 10141 10143 10145 10147 10149 10152 10154 10156 10159 10162 10165 10169 10172 10176 10179 10183 10187
10149 10147 10145 10142 10140 10137 10134 10132 10130 10129 10127 10126 10125 10125 10124 10123 10122 10122 10121 10119 10117 10116 10115 10114 10112 10111 10110 10110 10110 10110 10110 10109 10109 10108 10108 10107 10107 10108 10109 10110 10109 10109 10109 10109 10109 10109 10109 10110 10111 10112 10112 10113 10113 10114 10114 10115 10116 10117 10117 10118 10119 10120 10122 10122 10124 10125 10127 10129 10130 10132 10134 10136 10139 10140 10142 10145 10147 10150 10152 10155 10159 10162 10166 10169 10172 10175
10141 10139 10137 10134 10132 10129 10127 10125 10124 10122 10120 10119 10119 10118 10117 10116 10115 10114 10114 10112 10111 10110 10109 10108 10106 10105 10104 10103 10103 10104 10104 10104 10102 10102 10101 10100 10100 10102 10103 10104 10103 10102 10102 10102 10102 10102 10103 10104 10104 10105 10105 10105 10106 10107 10107 10108 10109 10110 10110 10111 10112 10113 10114 10115 10116 10117 10119 10120 10122 10124 10126 10128 10130 10132 10134 10137 10139 10141 10144 10147 10150 10153 10156 10159 10162 10165
10133 10131 10129 10126 10124 10121 10119 10118 10117 10115 10114 10113 10112 10111 10110 10109 10108 10107 10107 10105 10105 10104 10104 10102 10100 10099 10097 10097 10097 10097 10098 10098 10097 10095 10095 10094 10094 10095 10097 10097 10097 10096 10095 10096 10096 10096 10097 10097 10098 10098 10098 10099 10099 10100 10101 10102 10102 10103 10104 10104 10105 10105 10107 10107 10109 10110 10111 10112 10114 10117 10119 10120 10123 10125 10127 10129 10131 10133 10136 10139 10141 10144 10147 10150 10153 10156
10125 10123 10120 10119 10116 10114 10112 10111 10110 10109 10108 10107 10105 10105 10104 10102 10101 10100 10100 10099 10099 10099 10097 10097 10095 10094 10091 10090 10090 10092 10092 10092 10091 10090 10089 10088 10088 10089 10090 10090 10090 10090 10089 10090 10090 10090 10091 10092 10092 10092 10092 10092 10093 10094 10095 10095 10096 10097 10097 10097 10098 10099 10099 10100 10102 10103 10104 10106 10108 10110 10112 10114 10116 10117 10119 10121 10124 10125 10128 10130 10133 10135 10138 10141 10144 10147
10119 10116 10114 10111 10109 10107 10106 10104 10104 10103 10102 10101 10100 10099 10097 10096 10095 10094 10094 10093 10093 10092 10092 10091 10090 10088 10087 10085 10085 10085 10087 10087 10086 10084 10084 10082 10082 10082 10084 10084 10084 10084 10083 10084 10084 10085 10086 10086 10086 10086 10086 10087 10087 10088 10089 10089 10090 10090 10090 10091 10091 10092 10093 10094 10095 10097 10098 10100 10102 10104 10105 10107 10109 10111 10112 10114 10116 10119 10120 10123 10125 10128 10130 10133 10135 10139
10112 10109 10107 10105 10103 10101 10099 10098 10097 10096 10096 10095 10094 10093 10092 10090 10089 10089 10088 10087 10087 10087 10086 10085 10084 10083 10082 10080 10080 10080 10082 10082 10081 10079 10078 10077 10076 10077 10077 10079 10078 10077 10077 10078 10079 10079 10080 10080 10080 10080 10081 10082 10082 10083 10083 10084 10084 10084 10084 10084 10085 10086 10087 10088 10089 10090 10092 10094 10096 10098 10099 10101 10102 10104 10105 10107 10109 10111 10113 10115 10118 10120 10123 10125 10128 10130
10105 10103 10101 10099 10097 10095 10093 10091 10090 10090 10090 10089 10088 10087 10086 10085 10084 10084 10082 10082 10082 10081 10080 10080 10079 10077 10077 10076 10075 10075 10076 10077 10076 10074 10073 10072 10071 10071 10072 10073 10073 10072 10072 10072 10073 10074 10074 10074 10075 10075 10076 10077 10077 10077 10077 10077 10077 10078 10078 10079 10079 10080 10081 10082 10084 10085 10087 10089 10090 10092 10094 10095 10096 10097 10099 10100 10102 10104 10106 10108 10110 10113 10115 10118 10120 10123
10100 10097 10095 10094 10092 10090 10087 10085 10084 10084 10084 10083 10082 10082 10080 10080 10079 10078 10077 10077 10077 10076 10075 10075 10074 10073 10072 10072 10071 10070 10071 10072 10071 10069 10068 10067 10066 10066 10067 10068 10068 10067 10067 10067 10067 10069 10069 10069 10069 10070 10071 10072 10072 10072 10072 10072 10072 10072 10072 10073 10074 10075 10076 10077 10079 10080 10082 10083 10084 10086 10087 10089 10090 10091 10092 10094 10095 10097 10099 10101 10103 10105 10108 10111 10114 10116
10095 10092 10090 10089 10087 10085 10082 10080 10079 10078 10077 10077 10077 10076 10075 10075 10074 10073 10072 10072 10072 10071 10070 10070 10069 10068 10067 10067 10066 10066 10067 10067 10066 10065 10064 10062 10061 10061 10062 10063 10063 10062 10062 10062 10062 10063 10064 10064 10064 10065 10066 10066 10067 10067 10067 10067 10067 10067 10067 10068 10069 10069 10070 10072 10073 10075 10076 10077 10079 10080 10081 10082 10084 10085 10086 10087 10089 10090 10092 10094 10096 10099 10101 10104 10107 10109
10090 10087 10085 10084 10082 10080 10079 10076 10074 10073 10072 10072 10072 10070 10070 10070 10069 10068 10067 10067 10067 10066 10065 10065 10064 10063 10062 10062 10062 10062 10062 10062 10062 10060 10060 10058 10057 10056 10057 10058 10058 10057 10057 10057 10057 10058 10059 10059 10060 10060 10061 10061 10061 10061 10061 10061 10061 10061 10062 10063 10064 10064 10065 10067 10068 10069 10070 10072 10073 10074 10075 10076 10077 10079 10080 10082 10083 10084 10086 10088 10090 10092 10094 10097 10099 10102
10085 10082 10080 10079 10077 10075 10074 10072 10070 10069 10068 10067 10067 10065 10065 10065 10064 10064 10063 10062 10062 10062 10061 10060 10059 10059 10058 10058 10058 10057 10057 10057 10057 10057 10056 10054 10052 10052 10052 10053 10053 10052 10051 10051 10052 10053 10054 10054 10055 10056 10056 10057 10056 10056 10055 10055 10055 10056 10057 10057 10059 10059 10060 10062 10063 10064 10065 10066 10067 10068 10069 10070 10072 10073 10074 10075 10077 10079 10080 10082 10084 10086 10088 10090 10093 10095
10080 10078 10075 10074 10072 10071 10070 10068 10066 10065 10064 10062 10062 10061 10060 10060 10060 10059 10059 10058 10057 10057 10057 10056 10055 10054 10054 10054 10054 10053 10053 10053 10054 10053 10052 10050 10048 10047 10047 10048 10048 10047 10046 10046 10047 10048 10049 10050 10050 10051 10052 10052 10051 10051 10050 10050 10050 10051 10052 10052 10054 10055 10055 10057 10058 10059 10060 10060 10062 10062 10064 10065 10066 10067 10069 10070 10071 10073 10074 10076 10078 10080 10082 10084 10087 10089
10075 10074 10072 10070 10069 10067 10066 10064 10063 10061 10060 10059 10059 10058 10057 10057 10057 10055 10054 10054 10054 10054 10053 10052 10050 10050 10049 10049 10049 10049 10049 10049 10049 10048 10047 10045 10044 10043 10043 10044 10044 10043 10042 10041 10042 10043 10044 10045 10046 10047 10047 10047 10046 10046 10045 10045 10045 10046 10047 10048 10049 10050 10051 10052 10053 10054 10055 10055 10057 10057 10059 10059 10060 10062 10063 10064 10065 10067 10069 10070 10072 10074 10076 10079 10080 10083
10071 10069 10067 10065 10064 10063 10062 10061 10060 10059 10057 10057 10057 10057 10057 10055 10054 10052 10050 10049 10049 10049 10049 10047 10046 10045 10045 10045 10044 10044 10044 10044 10044 10044 10042 10042 10040 10039 10039 10039 10039 10039 10037 10037 10037 10038 10039 10040 10041 10042 10042 10042 10042 10041 10041 10040 10041 10042 10042 10043 10044 10045 10046 10047 10048 10049 10050 10050 10051 10052 10053 10054 10055 10057 10058 10059 10060 10062 10063 10065 10067 10069 10070 10073 10075 10077
10066 10065 10063 10061 10060 10059 10057 10057 10055 10055 10054 10053 10052 10052 10052 10051 10050 10047 10045 10044 10045 10045 10044 10043 10042 10041 10040 10040 10040 10040 10040 10040 10039 10039 10038 10037 10036 10035 10035 10035 10035 10034 10034 10033 10033 10034 10035 10035 10037 10037 10037 10037 10037 10037 10037 10036 10037 10037 10038 10039 10040 10041 10042 10042 10044 10044 10045 10045 10046 10047 10048 10049 10050 10051 10052 10054 10055 10057 10058 10060 10061 10063 10065 10067 10069 10072
10062 10060 10059 10057 10056 10054 10053 10052 10050 10050 10049 10047 10047 10045 10045 10044 10044 10042 10040 10040 10040 10040 10039 10039 10038 10037 10037 10036 10035 10035 10035 10035 10035 10034 10034 10033 10032 10031 10031 10031 10030 10030 10030 10029 10029 10029 10030 10031 10032 10032 10032 10032 10032 10032 10032 10032 10032 10033 10034 10034 10035 10037 10037 10038 10039 10039 10040 10040 10041 10042 10043 10044 10045 10046 10047 10049 10050 10052 10053 10055 10057 10058 10060 10062 10064 10067
10057 10056 10055 10053 10052 10050 10049 10048 10047 10045 10044 10044 10043 10042 10041 10040 10039 10038 10037 10037 10037 10036 10034 10034 10034 10033 10033 10032 10032 10032 10032 10032 10031 10030 10029 10029 10028 10027 10027 10027 10027 10026 10026 10025 10025 10025 10026 10027 10028 10028 10028 10028 10029 10028 10028 10028 10028 10029 10029 10030 10031 10032 10033 10034 10034 10035 10035 10036 10037 10037 10039 10040 10041 10042 10043 10044 10045 10047 10049 10050 10052 10054 10055 10057 10059 10062
10053 10052 10050 10049 10048 10047 10045 10044 10042 10041 10040 10040 10039 10038 10037 10036 10035 10035 10034 10033 10033 10032 10031 10030 10030 10029 10029 10029 10029 10028 10027 10027 10027 10026 10025 10025 10024 10024 10024 10024 10023 10022 10022 10022 10022 10022 10022 10023 10024 10024 10024 10024 10024 10024 10024 10024 10024 10025 10025 10026 10027 10028 10029 10029 10030 10030 10031 10032 10032 10033 10034 10035 10037 10037 10039 10040 10041 10042 10044 10045 10047 10049 10050 10052 10055 10057
10048 10047 10046 10045 10044 10042 10041 10040 10039 10037 10036 10035 10035 10034 10033 10032 10032 10031 10030 10030 10029 10029 10027 10027 10026 10025 10025 10025 10025 10024 10024 10024 10023 10022 10022 10021 10020 10020 10020 10020 10019 10019 10019 10019 10019 10019 10019 10019 10020 10020 10020 10020 10020 10020 10020 10020 10020 10021 10022 10022 10023 10024 10025 10025 10025 10026 10027 10027 10028 10029 10030 10031 10032 10033 10034 10035 10037 10038 10040 10041 10043 10044 10046 10048 10050 10052
10044 10043 10042 10041 10040 10039 10037 10036 10035 10034 10032 10032 10031 10030 10029 10029 10028 10027 10027 10026 10025 10025 10024 10024 10022 10022 10022 10021 10021 10020 10020 10020 10019 10019 10018 10018 10017 10017 10016 10016 10015 10015 10015 10015 10015 10015 10015 10015 10016 10017 10017 10017 10017 10017 10017 10017 10017 10017 10018 10019 10019 10020 10021 10021 10022 10022 10023 10024 10024 10025 10026 10027 10028 10029 10030 10032 10033 10034 10035 10037 10039 10040 10042 10044 10045 10047
10040 10039 10038 10037 10035 10034 10034 10032 10031 10030 10029 10028 10027 10027 10025 10025 10024 10024 10023 10022 10022 10021 10020 10020 10019 10019 10018 10018 10017 10017 10017 10017 10016 10015 10015 10014 10014 10013 10013 10012 10012 10012 10012 10012 10011 10012 10012 10012 10012 10013 10014 10014 10014 10014 10013 10013 10014 10014 10015 10015 10016 10017 10017 10017 10018 10019 10019 10020 10020 10021 10022 10023 10024 10025 10026 10027 10029 10030 10032 10033 10035 10036 10037 10039 10041 10043
10036 10035 10034 10033 10032 10030 10030 10029 10027 10027 10025 10025 10024 10023 10022 10022 10021 10020 10019 10019 10018 10017 10017 10017 10016 10015 10015 10015 10014 10014 10014 10013 10013 10012 10012 10011 10010 10010 10010 10009 10009 10009 10009 10008 10008 10008 10009 10009 10009 10010 10010 10010 10010 10010 10010 10010 10010 10010 10011 10012 10012 10013 10014 10014 10014 10015 10015 10016 10017 10017 10019 10019 10020 10021 10022 10024 10025 10026 10027 10029 10030 10032 10034 10035 10037 10039
10032 10031 10030 10029 10029 10027 10026 10025 10024 10023 10022 10022 10020 10020 10019 10019 10018 10017 10016 10015 10015 10014 10014 10013 10012 10012 10012 10011 10011 10010 10010 10010 10010 10009 10009 10008 10007 10007 10007 10006 10006 10006 10005 10005 10005 10005 10005 10005 10005 10006 10007 10007 10007 10007 10007 10007 10007 10007 10008 10009 10009 10010 10010 10010 10011 10012 10012 10013 10014 10014 10015 10015 10017 10018 10019 10020 10021 10022 10024 10025 10027 10028 10030 10032 10034 10035
10029 10028 10027 10026 10025 10024 10023 10022 10020 10020 10019 10019 10017 10017 10016 10015 10015 10014 10013 10012 10012 10011 10010 10010 10009 10009 10009 10008 10008 10007 10007 10007 10007 10006 10005 10005 10004 10004 10004 10004 10003 10003 10003 10002 10002 10002 10002 10002 10003 10003 10004 10004 10004 10004 10004 10004 10004 10005 10005 10005 10006 10007 10007 10007 10008 10009 10009 10009 10010 10010 10012 10012 10013 10014 10015 10016 10017 10019 10020 10022 10023 10024 10025 10028 10030 10032
10025 10024 10024 10022 10022 10020 10019 10019 10017 10017 10016 10015 10014 10014 10013 10012 10012 10011 10010 10009 10009 10008 10007 10007 10006 10006 10005 10005 10005 10005 10004 10004 10004 10003 10002 10002 10002 10001 10001 10000 10000 10000 10000 9999 9999 9999 9999 9999 10000 10000 10000 10001 10001 10002 10002 10002 10002 10002 10002 10002 10003 10004 10004 10004 10005 10005 10006 10006 10007 10007 10008 10009 10010 10010 10012 10013 10014 10015 10017 10018 10019 10020 10022 10024 10027 10029
10022 10021 10020 10019 10019 10017 10017 10015 10015 10014 10013 10012 10011 10010 10010 10009 10009 10008 10007 10007 10006 10005 10005 10004 10004 10003 10002 10002 10002 10002 10002 10001 10000 10000 10000 9999 9999 9999 9999 9998 9997 9997 9997 9997 9997 9997 9997 9997 9997 9997 9997 9998 9998 9999 9999 9999 9999 9999 9999 10000 10000 10000 10001 10002 10002 10002 10003 10004 10004 10004 10005 10005 10007 10007 10008 10009 10010 10012 10013 10015 10016 10017 10018 10020 10022 10024
10019 10018 10017 10016 10015 10014 10014 10012 10012 10011 10010 10009 10009 10008 10007 10007 10005 10005 10004 10004 10003 10002 10002 10002 10001 10000 10000 10000 9999 9999 9999 9999 9998 9997 9997 9997 9996 9996 9995 9995 9995 9994 9994 9994 9994 9994 9994 9994 9994 9994 9994 9995 9995 9995 9996 9996 9997 9997 9997 9997 9997 9997 9998 9999 9999 10000 10000 10000 10001 10001 10002 10002 10004 10004 10005 10006 10007 10008 10009 10011 10012 10014 10014 10015 10017 10019
10015 10015 10014 10013 10012 10011 10010 10009 10009 10008 10007 10006 10005 10005 10004 10004 10003 10002 10002 10001 10000 10000 9999 9999 9998 9997 9997 9997 9997 9997 9996 9995 9995 9995 9994 9994 9994 9993 9993 9992 9992 9992 9992 9991 9991 9990 9990 9990 9991 9991 9992 9992 9992 9993 9994 9994 9994 9994 9994 9994 9995 9995 9995 9996 9996 9997 9997 9997 9998 9999 9999 10000 10000 10001 10002 10002 10004 10005 10005 10007 10009 10010 10011 10012 10014 10015
10012 10012 10010 10010 10009 10008 10007 10007 10005 10005 10004 10004 10003 10002 10001 10000 10000 9999 9999 9998 9998 9997 9997 9996 9995 9995 9994 9994 9994 9994 9994 9993 9992 9992 9992 9991 9990 9990 9990 9990 9989 9989 9989 9989 9988 9988 9988 9988 9988 9989 9989 9989 9990 9990 9990 9991 9991 9991 9992 9992 9992 9992 9993 9993 9994 9994 9995 9995 9995 9996 9996 9997 9997 9998 9999 9999 10000 10001 10002 10004 10005 10007 10008 10009 10010 10011
10009 10009 10007 10007 10006 10005 10004 10004 10002 10002 10001 10000 10000 9999 9999 9998 9997 9997 9996 9995 9995 9994 9994 9994 9993 9992 9992 9992 9992 9992 9992 9991 9990 9990 9989 9989 9988 9988 9987 9987 9987 9987 9986 9986 9986 9985 9985 9985 9985 9985 9986 9986 9987 9987 9988 9988 9989 9989 9989 9989 9989 9990 9990 9990 9990 9991 9992 9992 9993 9993 9994 9994 9994 9995 9995 9997 9997 9999 9999 10000 10002 10003 10005 10006 10007 10007
10006 10005 10004 10004 10003 10002 10001 10000 10000 9999 9999 9998 9997 9997 9996 9995 9995 9994 9994 9993 9992 9992 9992 9991 9990 9990 9990 9990 9990 9990 9989 9989 9988 9987 9987 9986 9985 9985 9985 9984 9984 9984 9984 9984 9984 9983 9983 9983 9983 9984 9984 9984 9984 9985 9985 9985 9985 9986 9986 9987 9987 9987 9987 9988 9988 9989 9989 9989 9990 9990 9991 9991 9992 9992 9993 9994 9995 9995 9997 9997 9999 10000 10001 10003 10004 10005
10003 10002 10001 10000 10000 9999 9998 9997 9997 9996 9995 9995 9995 9994 9994 9993 9992 9992 9991 9990 9990 9990 9989 9989 9988 9988 9987 9987 9987 9987 9987 9987 9987 9986 9985 9984 9984 9983 9982 9982 9982 9982 9981 9981 9981 9981 9981 9981 9981 9981 9982 9982 9982 9982 9982 9982 9983 9983 9984 9984 9984 9984 9985 9985 9985 9986 9986 9987 9987 9987 9988 9989 9989 9990 9990 9991 9992 9993 9994 9995 9995 9997 9998 9999 10001 10002
10000 9999 9999 9998 9997 9996 9995 9994 9994 9993 9993 9992 9992 9992 9991 9990 9990 9989 9989 9988 9987 9987 9987 9986 9986 9985 9985 9985 9985 9985 9985 9985 9985 9984 9984 9983 9982 9980 9980 9979 9979 9979 9979 9979 9979 9979 9979 9979 9979 9979 9979 9979 9979 9980 9980 9980 9980 9980 9980 9981 9982 9982 9982 9983 9983 9984 9984 9984 9984 9985 9985 9986 9987 9987 9988 9989 9989 9990 9991 9992 9993 9994 9995 9996 9997 9999
9997 9997 9995 9995 9994 9993 9992 9992 9991 9990 9990 9990 9989 9989 9989 9988 9987 9987 9986 9985 9985 9984 9984 9984 9983 9983 9982 9982 9982 9982 9982 9982 9982 9982 9982 9981 9980 9979 9978 9977 9977 9977 9977 9977 9977 9977 9977 9977 9977 9977 9977 9977 9977 9977 9977 9977 9977 9977 9978 9979 9979 9979 9980 9980 9980 9981 9981 9981 9982 9982 9983 9984 9984 9985 9985 9986 9987 9988 9989 9990 9990 9992 9992 9994 9995 9996
9994 9994 9993 9992 9991 9990 9990 9989 9989 9988 9987 9987 9987 9986 9986 9985 9985 9985 9984 9984 9983 9982 9982 9981 9980 9980 9980 9980 9980 9980 9980 9980 9980 9980 9980 9979 9978 9977 9976 9975 9975 9974 9974 9974 9974 9975 9975 9975 9975 9975 9975 9975 9975 9975 9975 9975 9975 9975 9975 9976 9977 9977 9977 9978 9978 9979 9979 9979 9979 9980 9980 9981 9982 9982 9983 9984 9985 9985 9986 9987 9988 9989 9990 9991 9992 9994
9992 9991 9990 9989 9989 9988 9987 9987 9986 9985 9985 9984 9984 9984 9984 9983 9983 9982 9982 9981 9980 9980 9979 9979 9979 9978 9977 9977 9977 9977 9977 9977 9977 9977 9977 9977 9976 9975 9975 9974 9973 9972 9972 9972 9972 9972 9972 9973 9973 9973 9974 9973 9973 9973 9972 9972 9972 9973 9973 9974 9974 9975 9975 9975 9976 9976 9976 9976 9977 9977 9978 9979 9979 9980 9980 9981 9982 9983 9984 9985 9985 9987 9988 9989 9990 9991
9989 9989 9987 9987 9986 9985 9985 9984 9984 9983 9982 9982 9982 9981 9981 9980 9980 9980 9979 9979 9978 9977 9977 9977 9976 9975 9975 9975 9975 9974 9974 9974 9974 9975 9975 9974 9974 9974 9973 9972 9972 9971 9970 9970 9970 9970 9970 9970 9970 9971 9971 9971 9970 9970 9970 9970 9970 9970 9971 9972 9972 9972 9973 9973 9974 9974 9974 9974 9974 9975 9975 9975 9976 9977 9978 9979 9979 9980 9981 9982 9983 9984 9985 9987 9987 9989
9987 9986 9985 9984 9984 9983 9982 9982 9981 9980 9980 9979 9979 9979 9979 9978 9978 9977 9977 9977 9976 9975 9975 9974 9974 9974 9973 9972 9972 9972 9972 9972 9972 9972 9972 9972 9972 9972 9971 9970 9970 9969 9969 9968 9968 9968 9968 9968 9969 9969 9969 9969 9968 9968 9967 9968 9968 9969 9969 9969 9970 9970 9970 9970 9971 9971 9971 9972 9972 9972 9972 9973 9974 9974 9975 9975 9977 9977 9979 9979 9980 9982 9983 9984 9985 9986